Time,TemperatureF,DewpointF,PressureIn,WindDirection,WindDirectionDegrees,WindSpeedMPH,WindSpeedGustMPH,Humidity,HourlyPrecipIn,Conditions,Clouds,dailyrainin,SoftwareType,DateUTC
2013-04-01 00:00:00,25.0,9.0,29.99,NNW,344,9.0,14.0,50,0.00,,,0.00,Meteo,2013-04-01 05:00:00,
2013-04-01 00:05:00,25.0,8.1,29.99,North,349,6.0,10.0,48,0.00,,,0.00,Meteo,2013-04-01 05:05:00,
2013-04-01 00:10:00,25.0,8.1,29.99,NNW,348,7.0,11.0,48,0.00,,,0.00,Meteo,2013-04-01 05:10:00,
2013-04-01 00:15:00,25.0,8.1,29.99,NNW,345,5.0,7.0,48,0.00,,,0.00,Meteo,2013-04-01 05:15:00,
2013-04-01 00:20:00,25.0,7.2,29.99,North,349,8.0,14.0,46,0.00,,,0.00,Meteo,2013-04-01 05:20:00,
2013-04-01 00:25:00,25.0,9.0,29.99,NNW,343,7.0,12.0,50,0.00,,,0.00,Meteo,2013-04-01 05:25:00,
2013-04-01 00:30:00,25.0,9.4,29.99,NNW,339,4.0,7.0,51,0.00,,,0.00,Meteo,2013-04-01 05:30:00,
2013-04-01 00:35:00,25.0,8.1,29.99,North,349,7.0,11.0,48,0.00,,,0.00,Meteo,2013-04-01 05:35:00,
2013-04-01 00:40:00,25.0,8.5,29.99,North,352,6.0,8.0,49,0.00,,,0.00,Meteo,2013-04-01 05:40:00,
2013-04-01 00:45:00,25.0,8.1,29.99,NNW,342,7.0,11.0,48,0.00,,,0.00,Meteo,2013-04-01 05:45:00,
2013-04-01 00:50:00,25.0,6.7,30.00,NNW,343,9.0,15.0,45,0.00,,,0.00,Meteo,2013-04-01 05:50:00,
2013-04-01 00:55:00,25.0,7.2,30.00,NNW,343,5.0,11.0,46,0.00,,,0.00,Meteo,2013-04-01 05:55:00,
2013-04-01 01:00:00,25.0,8.1,30.00,NNW,336,4.0,10.0,48,0.00,,,0.00,Meteo,2013-04-01 06:00:00,
2013-04-01 01:05:00,25.0,5.7,30.00,NNW,337,6.0,8.0,43,0.00,,,0.00,Meteo,2013-04-01 06:05:00,
2013-04-01 01:10:00,25.0,6.7,30.00,NNW,344,6.0,8.0,45,0.00,,,0.00,Meteo,2013-04-01 06:10:00,
2013-04-01 01:15:00,25.0,8.1,30.00,NNW,347,4.0,7.0,48,0.00,,,0.00,Meteo,2013-04-01 06:15:00,
2013-04-01 01:20:00,24.0,4.8,30.01,NNW,332,7.0,9.0,43,0.00,,,0.00,Meteo,2013-04-01 06:20:00,
2013-04-01 01:25:00,25.0,7.2,30.01,North,350,7.0,13.0,46,0.00,,,0.00,Meteo,2013-04-01 06:25:00,
2013-04-01 01:30:00,24.0,5.3,30.01,NNW,340,8.0,11.0,44,0.00,,,0.00,Meteo,2013-04-01 06:30:00,
2013-04-01 01:35:00,24.0,5.8,30.01,NNW,336,5.0,9.0,45,0.00,,,0.00,Meteo,2013-04-01 06:35:00,
2013-04-01 01:40:00,24.0,6.7,30.01,NNW,344,5.0,7.0,47,0.00,,,0.00,Meteo,2013-04-01 06:40:00,
2013-04-01 01:45:00,24.0,5.8,30.01,NNW,330,5.0,8.0,45,0.00,,,0.00,Meteo,2013-04-01 06:45:00,
2013-04-01 01:50:00,24.0,6.2,30.01,North,349,7.0,10.0,46,0.00,,,0.00,Meteo,2013-04-01 06:50:00,
2013-04-01 01:55:00,24.0,5.8,30.01,NNW,337,7.0,12.0,45,0.00,,,0.00,Meteo,2013-04-01 06:55:00,
2013-04-01 02:00:00,24.0,6.2,30.01,NNW,335,5.0,7.0,46,0.00,,,0.00,Meteo,2013-04-01 07:00:00,
2013-04-01 02:05:00,24.0,5.8,30.01,NNW,332,6.0,10.0,45,0.00,,,0.00,Meteo,2013-04-01 07:05:00,
2013-04-01 02:10:00,24.0,5.8,30.01,NNW,334,5.0,7.0,45,0.00,,,0.00,Meteo,2013-04-01 07:10:00,
2013-04-01 02:15:00,24.0,5.8,30.01,NNW,347,7.0,10.0,45,0.00,,,0.00,Meteo,2013-04-01 07:15:00,
2013-04-01 02:20:00,24.0,6.2,30.01,NNW,342,3.0,6.0,46,0.00,,,0.00,Meteo,2013-04-01 07:20:00,
2013-04-01 02:26:00,24.0,6.7,30.01,NNW,343,2.0,3.0,47,0.00,,,0.00,Meteo,2013-04-01 07:26:00,
2013-04-01 02:31:00,24.0,6.7,30.01,NNW,332,4.0,7.0,47,0.00,,,0.00,Meteo,2013-04-01 07:31:00,
2013-04-01 02:36:00,24.0,7.2,30.02,WNW,300,2.0,3.0,48,0.00,,,0.00,Meteo,2013-04-01 07:36:00,
2013-04-01 02:41:00,24.0,6.2,30.02,NW,319,4.0,10.0,46,0.00,,,0.00,Meteo,2013-04-01 07:41:00,
2013-04-01 02:46:00,24.0,5.3,30.02,NW,316,6.0,10.0,44,0.00,,,0.00,Meteo,2013-04-01 07:46:00,
2013-04-01 02:51:00,24.0,4.8,30.02,NNW,329,5.0,9.0,43,0.00,,,0.00,Meteo,2013-04-01 07:51:00,
2013-04-01 02:56:00,24.0,5.3,30.02,NW,324,3.0,7.0,44,0.00,,,0.00,Meteo,2013-04-01 07:56:00,
2013-04-01 03:01:00,24.0,5.3,30.02,NNW,337,6.0,11.0,44,0.00,,,0.00,Meteo,2013-04-01 08:01:00,
2013-04-01 03:06:00,24.0,4.8,30.02,NW,305,8.0,13.0,43,0.00,,,0.00,Meteo,2013-04-01 08:06:00,
2013-04-01 03:11:00,24.0,4.8,30.02,NW,312,6.0,10.0,43,0.00,,,0.00,Meteo,2013-04-01 08:11:00,
2013-04-01 03:16:00,24.0,4.8,30.02,NW,315,4.0,7.0,43,0.00,,,0.00,Meteo,2013-04-01 08:16:00,
2013-04-01 03:21:00,24.0,4.8,30.02,NNW,330,4.0,7.0,43,0.00,,,0.00,Meteo,2013-04-01 08:21:00,
2013-04-01 03:26:00,24.0,5.8,30.02,NNW,339,7.0,9.0,45,0.00,,,0.00,Meteo,2013-04-01 08:26:00,
2013-04-01 03:31:00,24.0,4.8,30.02,NNW,345,8.0,13.0,43,0.00,,,0.00,Meteo,2013-04-01 08:31:00,
2013-04-01 03:36:00,24.0,4.8,30.02,NNW,334,8.0,11.0,43,0.00,,,0.00,Meteo,2013-04-01 08:36:00,
2013-04-01 03:41:00,24.0,5.3,30.03,NW,323,8.0,12.0,44,0.00,,,0.00,Meteo,2013-04-01 08:41:00,
2013-04-01 03:46:00,24.0,4.8,30.03,NNW,334,5.0,8.0,43,0.00,,,0.00,Meteo,2013-04-01 08:46:00,
2013-04-01 03:51:00,24.0,4.8,30.03,NNW,335,8.0,12.0,43,0.00,,,0.00,Meteo,2013-04-01 08:51:00,
2013-04-01 03:56:00,24.0,4.3,30.03,NNW,340,7.0,10.0,42,0.00,,,0.00,Meteo,2013-04-01 08:56:00,
2013-04-01 04:01:00,24.0,4.8,30.03,NNW,327,5.0,8.0,43,0.00,,,0.00,Meteo,2013-04-01 09:01:00,
2013-04-01 04:06:00,23.0,3.9,30.03,NNW,337,5.0,7.0,43,0.00,,,0.00,Meteo,2013-04-01 09:06:00,
2013-04-01 04:11:00,23.0,3.3,30.03,NW,306,7.0,10.0,42,0.00,,,0.00,Meteo,2013-04-01 09:11:00,
2013-04-01 04:16:00,23.0,3.3,30.03,NNW,345,7.0,9.0,42,0.00,,,0.00,Meteo,2013-04-01 09:16:00,
2013-04-01 04:21:00,23.0,4.3,30.03,NNW,338,5.0,8.0,44,0.00,,,0.00,Meteo,2013-04-01 09:21:00,
2013-04-01 04:26:00,23.0,4.3,30.04,NNW,345,7.0,10.0,44,0.00,,,0.00,Meteo,2013-04-01 09:26:00,
2013-04-01 04:31:00,23.0,4.3,30.04,NNW,348,6.0,9.0,44,0.00,,,0.00,Meteo,2013-04-01 09:31:00,
2013-04-01 04:36:00,23.0,4.8,30.04,NNW,337,5.0,7.0,45,0.00,,,0.00,Meteo,2013-04-01 09:36:00,
2013-04-01 04:41:00,23.0,5.3,30.04,NNW,328,5.0,10.0,46,0.00,,,0.00,Meteo,2013-04-01 09:41:00,
2013-04-01 04:47:00,23.0,5.8,30.04,NNW,343,6.0,8.0,47,0.00,,,0.00,Meteo,2013-04-01 09:47:00,
2013-04-01 04:52:00,23.0,4.8,30.04,NNW,333,5.0,8.0,45,0.00,,,0.00,Meteo,2013-04-01 09:52:00,
2013-04-01 04:57:00,23.0,5.3,30.04,NNW,328,6.0,11.0,46,0.00,,,0.00,Meteo,2013-04-01 09:57:00,
2013-04-01 05:02:00,23.0,5.8,30.04,NNW,340,3.0,4.0,47,0.00,,,0.00,Meteo,2013-04-01 10:02:00,
2013-04-01 05:07:00,23.0,5.8,30.04,NNW,341,5.0,8.0,47,0.00,,,0.00,Meteo,2013-04-01 10:07:00,
2013-04-01 05:12:00,23.0,5.3,30.04,NNW,340,8.0,13.0,46,0.00,,,0.00,Meteo,2013-04-01 10:12:00,
2013-04-01 05:18:00,23.0,5.3,30.04,NNW,340,4.0,6.0,46,0.00,,,0.00,Meteo,2013-04-01 10:18:00,
2013-04-01 05:23:00,23.0,5.3,30.04,NNW,341,4.0,6.0,46,0.00,,,0.00,Meteo,2013-04-01 10:23:00,
2013-04-01 05:28:00,23.0,6.2,30.04,NNW,327,3.0,4.0,48,0.00,,,0.00,Meteo,2013-04-01 10:28:00,
2013-04-01 05:33:00,23.0,5.8,30.04,NNW,330,3.0,6.0,47,0.00,,,0.00,Meteo,2013-04-01 10:33:00,
2013-04-01 05:38:00,23.0,6.2,30.04,NNW,333,3.0,5.0,48,0.00,,,0.00,Meteo,2013-04-01 10:38:00,
2013-04-01 05:43:00,23.0,6.2,30.04,NNW,341,4.0,6.0,48,0.00,,,0.00,Meteo,2013-04-01 10:43:00,
2013-04-01 05:48:00,23.0,6.7,30.04,NNW,338,3.0,3.0,49,0.00,,,0.00,Meteo,2013-04-01 10:48:00,
2013-04-01 05:54:00,23.0,6.2,30.05,NW,317,3.0,6.0,48,0.00,,,0.00,Meteo,2013-04-01 10:54:00,
2013-04-01 05:59:00,23.0,6.7,30.05,NNW,339,3.0,6.0,49,0.00,,,0.00,Meteo,2013-04-01 10:59:00,
2013-04-01 06:04:00,23.0,7.6,30.05,WNW,301,3.0,5.0,51,0.00,,,0.00,Meteo,2013-04-01 11:04:00,
2013-04-01 06:09:00,23.0,8.0,30.05,NNW,340,6.0,8.0,52,0.00,,,0.00,Meteo,2013-04-01 11:09:00,
2013-04-01 06:14:00,23.0,9.3,30.05,WNW,302,4.0,7.0,55,0.00,,,0.00,Meteo,2013-04-01 11:14:00,
2013-04-01 06:19:00,23.0,10.0,30.06,NW,310,5.0,10.0,57,0.00,,,0.00,Meteo,2013-04-01 11:19:00,
2013-04-01 06:24:00,23.0,11.0,30.06,NNW,337,5.0,8.0,60,0.00,,,0.00,Meteo,2013-04-01 11:24:00,
2013-04-01 06:29:00,22.0,11.0,30.06,NNW,332,5.0,9.0,62,0.00,,,0.00,Meteo,2013-04-01 11:29:00,
2013-04-01 06:34:00,22.0,11.0,30.06,NW,326,3.0,4.0,61,0.00,,,0.00,Meteo,2013-04-01 11:34:00,
2013-04-01 06:39:00,23.0,12.0,30.06,NW,311,5.0,9.0,61,0.00,,,0.00,Meteo,2013-04-01 11:39:00,
2013-04-01 06:44:00,23.0,12.0,30.06,NW,314,3.0,5.0,61,0.00,,,0.00,Meteo,2013-04-01 11:44:00,
2013-04-01 06:49:00,23.0,11.0,30.06,NW,321,3.0,5.0,60,0.00,,,0.00,Meteo,2013-04-01 11:49:00,
2013-04-01 06:54:00,22.0,10.0,30.06,WNW,293,2.0,4.0,60,0.00,,,0.00,Meteo,2013-04-01 11:54:00,
2013-04-01 06:59:00,22.0,9.9,30.06,WNW,300,6.0,9.0,59,0.00,,,0.00,Meteo,2013-04-01 11:59:00,
2013-04-01 07:04:00,22.0,8.7,30.07,NW,326,6.0,9.0,56,0.00,,,0.00,Meteo,2013-04-01 12:04:00,
2013-04-01 07:09:00,22.0,7.1,30.07,NNW,329,6.0,10.0,52,0.00,,,0.00,Meteo,2013-04-01 12:09:00,
2013-04-01 07:14:00,22.0,7.5,30.07,NW,315,5.0,7.0,53,0.00,,,0.00,Meteo,2013-04-01 12:14:00,
2013-04-01 07:19:00,22.0,7.9,30.07,NW,319,4.0,6.0,54,0.00,,,0.00,Meteo,2013-04-01 12:19:00,
2013-04-01 07:24:00,22.0,7.5,30.08,NW,310,4.0,8.0,53,0.00,,,0.00,Meteo,2013-04-01 12:24:00,
2013-04-01 07:29:00,22.0,8.3,30.08,WNW,303,5.0,11.0,55,0.00,,,0.00,Meteo,2013-04-01 12:29:00,
2013-04-01 07:34:00,22.0,8.3,30.08,NNW,337,2.0,4.0,55,0.00,,,0.00,Meteo,2013-04-01 12:34:00,
2013-04-01 07:39:00,22.0,8.3,30.08,NW,313,4.0,8.0,55,0.00,,,0.00,Meteo,2013-04-01 12:39:00,
2013-04-01 07:44:00,22.0,8.3,30.08,NW,316,6.0,10.0,55,0.00,,,0.00,Meteo,2013-04-01 12:44:00,
2013-04-01 07:49:00,22.0,8.3,30.09,NW,309,4.0,6.0,55,0.00,,,0.00,Meteo,2013-04-01 12:49:00,
2013-04-01 07:54:00,22.0,8.7,30.09,NW,306,3.0,5.0,56,0.00,,,0.00,Meteo,2013-04-01 12:54:00,
2013-04-01 07:59:00,22.0,8.3,30.09,WNW,284,2.0,3.0,55,0.00,,,0.00,Meteo,2013-04-01 12:59:00,
2013-04-01 08:04:00,22.0,7.9,30.09,WNW,294,2.0,5.0,54,0.00,,,0.00,Meteo,2013-04-01 13:04:00,
2013-04-01 08:09:00,22.0,7.9,30.09,WNW,303,4.0,8.0,54,0.00,,,0.00,Meteo,2013-04-01 13:09:00,
2013-04-01 08:14:00,22.0,8.3,30.09,WNW,286,4.0,9.0,55,0.00,,,0.00,Meteo,2013-04-01 13:14:00,
2013-04-01 08:19:00,22.0,8.3,30.10,NW,317,1.0,4.0,55,0.00,,,0.00,Meteo,2013-04-01 13:19:00,
2013-04-01 08:25:00,22.0,8.7,30.10,WNW,303,3.0,5.0,56,0.00,,,0.00,Meteo,2013-04-01 13:25:00,
2013-04-01 08:30:00,22.0,8.7,30.10,WNW,300,5.0,9.0,56,0.00,,,0.00,Meteo,2013-04-01 13:30:00,
2013-04-01 08:35:00,22.0,8.7,30.10,West,274,2.0,4.0,56,0.00,,,0.00,Meteo,2013-04-01 13:35:00,
2013-04-01 08:40:00,23.0,10.0,30.10,WNW,282,3.0,11.0,57,0.00,,,0.00,Meteo,2013-04-01 13:40:00,
2013-04-01 08:45:00,23.0,9.3,30.10,NW,315,6.0,10.0,55,0.00,,,0.00,Meteo,2013-04-01 13:45:00,
2013-04-01 08:50:00,22.0,8.7,30.10,West,278,3.0,8.0,56,0.00,,,0.00,Meteo,2013-04-01 13:50:00,
2013-04-01 08:55:00,23.0,9.7,30.11,NW,305,6.0,10.0,56,0.00,,,0.00,Meteo,2013-04-01 13:55:00,
2013-04-01 09:00:00,23.0,9.7,30.11,WNW,286,3.0,5.0,56,0.00,,,0.00,Meteo,2013-04-01 14:00:00,
2013-04-01 09:05:00,23.0,9.7,30.11,NW,319,5.0,8.0,56,0.00,,,0.00,Meteo,2013-04-01 14:05:00,
2013-04-01 09:11:00,23.0,8.8,30.11,NW,316,8.0,12.0,54,0.00,,,0.00,Meteo,2013-04-01 14:11:00,
2013-04-01 09:16:00,24.0,11.0,30.11,NW,316,5.0,8.0,56,0.00,,,0.00,Meteo,2013-04-01 14:16:00,
2013-04-01 09:21:00,24.0,10.0,30.11,West,263,3.0,6.0,55,0.00,,,0.00,Meteo,2013-04-01 14:21:00,
2013-04-01 09:26:00,24.0,9.4,30.11,West,271,4.0,7.0,53,0.00,,,0.00,Meteo,2013-04-01 14:26:00,
2013-04-01 09:31:00,24.0,9.4,30.11,NW,319,6.0,9.0,53,0.00,,,0.00,Meteo,2013-04-01 14:31:00,
2013-04-01 09:36:00,24.0,9.4,30.11,WNW,287,4.0,6.0,53,0.00,,,0.00,Meteo,2013-04-01 14:36:00,
2013-04-01 09:41:00,24.0,9.4,30.11,NW,304,4.0,7.0,53,0.00,,,0.00,Meteo,2013-04-01 14:41:00,
2013-04-01 09:46:00,24.0,8.9,30.11,West,278,2.0,4.0,52,0.00,,,0.00,Meteo,2013-04-01 14:46:00,
2013-04-01 09:51:00,24.0,7.2,30.12,NNW,331,7.0,11.0,48,0.00,,,0.00,Meteo,2013-04-01 14:51:00,
2013-04-01 09:57:00,24.0,8.9,30.12,NNW,330,6.0,9.0,52,0.00,,,0.00,Meteo,2013-04-01 14:57:00,
2013-04-01 10:02:00,24.0,8.5,30.12,NW,314,6.0,11.0,51,0.00,,,0.00,Meteo,2013-04-01 15:02:00,
2013-04-01 10:07:00,24.0,8.1,30.12,NW,314,6.0,9.0,50,0.00,,,0.00,Meteo,2013-04-01 15:07:00,
2013-04-01 10:12:00,24.0,8.5,30.12,NW,309,4.0,8.0,51,0.00,,,0.00,Meteo,2013-04-01 15:12:00,
2013-04-01 10:17:00,24.0,7.6,30.12,WNW,299,3.0,9.0,49,0.00,,,0.00,Meteo,2013-04-01 15:17:00,
2013-04-01 10:22:00,24.0,7.6,30.12,NW,305,6.0,12.0,49,0.00,,,0.00,Meteo,2013-04-01 15:22:00,
2013-04-01 10:27:00,24.0,7.6,30.12,WNW,299,6.0,13.0,49,0.00,,,0.00,Meteo,2013-04-01 15:27:00,
2013-04-01 10:32:00,24.0,7.2,30.12,WNW,285,4.0,7.0,48,0.00,,,0.00,Meteo,2013-04-01 15:32:00,
2013-04-01 10:37:00,24.0,7.2,30.12,NNW,340,7.0,10.0,48,0.00,,,0.00,Meteo,2013-04-01 15:37:00,
2013-04-01 10:43:00,24.0,6.7,30.12,NNW,327,7.0,10.0,47,0.00,,,0.00,Meteo,2013-04-01 15:43:00,
2013-04-01 10:48:00,25.0,7.6,30.12,NNW,335,7.0,9.0,47,0.00,,,0.00,Meteo,2013-04-01 15:48:00,
2013-04-01 10:53:00,25.0,7.6,30.12,NW,314,5.0,10.0,47,0.00,,,0.00,Meteo,2013-04-01 15:53:00,
2013-04-01 10:58:00,25.0,7.2,30.13,NNW,340,9.0,15.0,46,0.00,,,0.00,Meteo,2013-04-01 15:58:00,
2013-04-01 11:03:00,25.0,7.2,30.13,NNW,331,7.0,10.0,46,0.00,,,0.00,Meteo,2013-04-01 16:03:00,
2013-04-01 11:08:00,25.0,6.2,30.13,NNW,329,8.0,12.0,44,0.00,,,0.00,Meteo,2013-04-01 16:08:00,
2013-04-01 11:13:00,24.0,6.7,30.13,WNW,303,7.0,11.0,47,0.00,,,0.00,Meteo,2013-04-01 16:13:00,
2013-04-01 11:18:00,25.0,6.7,30.13,NW,321,7.0,11.0,45,0.00,,,0.00,Meteo,2013-04-01 16:18:00,
2013-04-01 11:23:00,25.0,6.7,30.13,NW,319,8.0,11.0,45,0.00,,,0.00,Meteo,2013-04-01 16:23:00,
2013-04-01 11:28:00,25.0,6.7,30.13,NNW,340,8.0,12.0,45,0.00,,,0.00,Meteo,2013-04-01 16:28:00,
2013-04-01 11:33:00,25.0,6.2,30.13,WNW,296,4.0,10.0,44,0.00,,,0.00,Meteo,2013-04-01 16:33:00,
2013-04-01 11:39:00,26.0,6.6,30.13,NW,319,8.0,12.0,43,0.00,,,0.00,Meteo,2013-04-01 16:39:00,
2013-04-01 11:44:00,26.0,6.6,30.13,NW,308,8.0,11.0,43,0.00,,,0.00,Meteo,2013-04-01 16:44:00,
2013-04-01 11:49:00,26.0,7.1,30.13,NNW,328,7.0,11.0,44,0.00,,,0.00,Meteo,2013-04-01 16:49:00,
2013-04-01 11:54:00,26.0,6.1,30.13,NW,316,9.0,13.0,42,0.00,,,0.00,Meteo,2013-04-01 16:54:00,
2013-04-01 11:59:00,26.0,6.6,30.13,NW,322,5.0,9.0,43,0.00,,,0.00,Meteo,2013-04-01 16:59:00,
2013-04-01 12:04:00,26.0,5.5,30.13,NW,316,8.0,13.0,41,0.00,,,0.00,Meteo,2013-04-01 17:04:00,
2013-04-01 12:09:00,26.0,5.0,30.13,WNW,303,5.0,10.0,40,0.00,,,0.00,Meteo,2013-04-01 17:09:00,
2013-04-01 12:14:00,26.0,6.1,30.13,NW,321,5.0,8.0,42,0.00,,,0.00,Meteo,2013-04-01 17:14:00,
2013-04-01 12:20:00,27.0,5.9,30.13,West,266,5.0,10.0,40,0.00,,,0.00,Meteo,2013-04-01 17:20:00,
2013-04-01 12:25:00,27.0,6.4,30.13,NNW,333,4.0,12.0,41,0.00,,,0.00,Meteo,2013-04-01 17:25:00,
2013-04-01 12:30:00,27.0,4.8,30.13,WNW,296,7.0,10.0,38,0.00,,,0.00,Meteo,2013-04-01 17:30:00,
2013-04-01 12:35:00,27.0,5.4,30.13,NW,319,7.0,9.0,39,0.00,,,0.00,Meteo,2013-04-01 17:35:00,
2013-04-01 12:40:00,28.0,7.4,30.13,NW,304,3.0,6.0,41,0.00,,,0.00,Meteo,2013-04-01 17:40:00,
2013-04-01 12:45:00,28.0,4.5,30.13,NNW,333,6.0,8.0,36,0.00,,,0.00,Meteo,2013-04-01 17:45:00,
2013-04-01 12:50:00,27.0,5.9,30.13,NW,305,5.0,10.0,40,0.00,,,0.00,Meteo,2013-04-01 17:50:00,
2013-04-01 12:55:00,28.0,6.8,30.13,NW,311,5.0,7.0,40,0.00,,,0.00,Meteo,2013-04-01 17:55:00,
2013-04-01 13:00:00,27.0,5.9,30.13,WNW,299,2.0,5.0,40,0.00,,,0.00,Meteo,2013-04-01 18:00:00,
2013-04-01 13:05:00,28.0,5.7,30.13,West,271,6.0,10.0,38,0.00,,,0.00,Meteo,2013-04-01 18:05:00,
2013-04-01 13:10:00,28.0,3.9,30.13,NNW,335,10.0,13.0,35,0.00,,,0.00,Meteo,2013-04-01 18:10:00,
2013-04-01 13:15:00,27.0,3.0,30.13,NNW,334,8.0,13.0,35,0.00,,,0.00,Meteo,2013-04-01 18:15:00,
2013-04-01 13:20:00,27.0,4.8,30.12,NW,311,3.0,8.0,38,0.00,,,0.00,Meteo,2013-04-01 18:20:00,
2013-04-01 13:25:00,28.0,5.1,30.12,WNW,292,4.0,7.0,37,0.00,,,0.00,Meteo,2013-04-01 18:25:00,
2013-04-01 13:30:00,28.0,4.5,30.12,NNW,339,6.0,10.0,36,0.00,,,0.00,Meteo,2013-04-01 18:30:00,
2013-04-01 13:35:00,28.0,3.9,30.12,NW,319,4.0,6.0,35,0.00,,,0.00,Meteo,2013-04-01 18:35:00,
2013-04-01 13:40:00,29.0,4.2,30.12,NW,318,5.0,10.0,34,0.00,,,0.00,Meteo,2013-04-01 18:40:00,
2013-04-01 13:45:00,29.0,6.6,30.12,West,270,4.0,14.0,38,0.00,,,0.00,Meteo,2013-04-01 18:45:00,
2013-04-01 13:50:00,29.0,6.0,30.12,NNW,330,3.0,6.0,37,0.00,,,0.00,Meteo,2013-04-01 18:50:00,
2013-04-01 13:55:00,29.0,6.0,30.12,WNW,287,4.0,8.0,37,0.00,,,0.00,Meteo,2013-04-01 18:55:00,
2013-04-01 14:00:00,29.0,4.8,30.12,NW,309,5.0,11.0,35,0.00,,,0.00,Meteo,2013-04-01 19:00:00,
2013-04-01 14:05:00,30.0,5.7,30.12,WNW,288,5.0,10.0,35,0.00,,,0.00,Meteo,2013-04-01 19:05:00,
2013-04-01 14:10:00,30.0,5.7,30.12,WNW,283,3.0,7.0,35,0.00,,,0.00,Meteo,2013-04-01 19:10:00,
2013-04-01 14:15:00,30.0,6.3,30.12,NW,310,3.0,6.0,36,0.00,,,0.00,Meteo,2013-04-01 19:15:00,
2013-04-01 14:20:00,31.0,5.9,30.12,WNW,287,4.0,10.0,34,0.00,,,0.00,Meteo,2013-04-01 19:20:00,
2013-04-01 14:25:00,30.0,5.0,30.12,West,280,2.0,7.0,34,0.00,,,0.00,Meteo,2013-04-01 19:25:00,
2013-04-01 14:30:00,31.0,7.2,30.11,NNW,330,5.0,10.0,36,0.00,,,0.00,Meteo,2013-04-01 19:30:00,
2013-04-01 14:35:00,30.0,6.9,30.11,NW,305,7.0,13.0,37,0.00,,,0.00,Meteo,2013-04-01 19:35:00,
2013-04-01 14:40:00,30.0,5.0,30.11,NW,317,9.0,13.0,34,0.00,,,0.00,Meteo,2013-04-01 19:40:00,
2013-04-01 14:45:00,31.0,6.6,30.11,WNW,284,4.0,11.0,35,0.00,,,0.00,Meteo,2013-04-01 19:45:00,
2013-04-01 14:50:00,31.0,5.3,30.11,WNW,298,5.0,10.0,33,0.00,,,0.00,Meteo,2013-04-01 19:50:00,
2013-04-01 14:55:00,31.0,5.3,30.11,WNW,288,4.0,7.0,33,0.00,,,0.00,Meteo,2013-04-01 19:55:00,
2013-04-01 15:00:00,31.0,5.3,30.11,West,268,4.0,6.0,33,0.00,,,0.00,Meteo,2013-04-01 20:00:00,
2013-04-01 15:05:00,31.0,5.9,30.11,WNW,296,5.0,9.0,34,0.00,,,0.00,Meteo,2013-04-01 20:05:00,
2013-04-01 15:10:00,31.0,6.6,30.11,West,273,2.0,4.0,35,0.00,,,0.00,Meteo,2013-04-01 20:10:00,
2013-04-01 15:15:00,31.0,7.2,30.11,NW,313,2.0,3.0,36,0.00,,,0.00,Meteo,2013-04-01 20:15:00,
2013-04-01 15:20:00,32.0,7.5,30.11,WNW,296,7.0,13.0,35,0.00,,,0.00,Meteo,2013-04-01 20:20:00,
2013-04-01 15:25:00,32.0,5.5,30.11,WNW,303,4.0,9.0,32,0.00,,,0.00,Meteo,2013-04-01 20:25:00,
2013-04-01 15:30:00,32.0,5.5,30.11,WNW,295,5.0,11.0,32,0.00,,,0.00,Meteo,2013-04-01 20:30:00,
2013-04-01 15:35:00,31.0,5.3,30.10,WNW,288,5.0,10.0,33,0.00,,,0.00,Meteo,2013-04-01 20:35:00,
2013-04-01 15:40:00,32.0,6.8,30.10,West,267,5.0,9.0,34,0.00,,,0.00,Meteo,2013-04-01 20:40:00,
2013-04-01 15:45:00,32.0,6.8,30.10,West,273,4.0,11.0,34,0.00,,,0.00,Meteo,2013-04-01 20:45:00,
2013-04-01 15:50:00,32.0,6.2,30.10,NW,315,4.0,7.0,33,0.00,,,0.00,Meteo,2013-04-01 20:50:00,
2013-04-01 15:55:00,32.0,6.2,30.10,WNW,302,4.0,8.0,33,0.00,,,0.00,Meteo,2013-04-01 20:55:00,
2013-04-01 16:00:00,32.0,6.2,30.10,West,268,4.0,7.0,33,0.00,,,0.00,Meteo,2013-04-01 21:00:00,
2013-04-01 16:05:00,32.0,6.2,30.10,WNW,287,6.0,17.0,33,0.00,,,0.00,Meteo,2013-04-01 21:05:00,
2013-04-01 16:10:00,32.0,5.5,30.10,WNW,299,3.0,6.0,32,0.00,,,0.00,Meteo,2013-04-01 21:10:00,
2013-04-01 16:15:00,32.0,6.2,30.10,West,260,3.0,7.0,33,0.00,,,0.00,Meteo,2013-04-01 21:15:00,
2013-04-01 16:20:00,33.0,7.7,30.09,WNW,290,4.0,7.0,34,0.00,,,0.00,Meteo,2013-04-01 21:20:00,
2013-04-01 16:25:00,33.0,7.1,30.09,NW,312,7.0,11.0,33,0.00,,,0.00,Meteo,2013-04-01 21:25:00,
2013-04-01 16:30:00,32.0,5.5,30.09,WNW,301,3.0,6.0,32,0.00,,,0.00,Meteo,2013-04-01 21:30:00,
2013-04-01 16:35:00,33.0,5.7,30.09,WNW,301,4.0,7.0,31,0.00,,,0.00,Meteo,2013-04-01 21:35:00,
2013-04-01 16:40:00,33.0,7.7,30.09,WNW,290,3.0,9.0,34,0.00,,,0.00,Meteo,2013-04-01 21:40:00,
2013-04-01 16:45:00,33.0,7.1,30.09,WNW,296,2.0,3.0,33,0.00,,,0.00,Meteo,2013-04-01 21:45:00,
2013-04-01 16:50:00,33.0,6.4,30.09,West,264,4.0,11.0,32,0.00,,,0.00,Meteo,2013-04-01 21:50:00,
2013-04-01 16:55:00,34.0,7.9,30.09,West,272,3.0,5.0,33,0.00,,,0.00,Meteo,2013-04-01 21:55:00,
2013-04-01 17:00:00,34.0,6.6,30.09,WNW,302,4.0,11.0,31,0.00,,,0.00,Meteo,2013-04-01 22:00:00,
2013-04-01 17:05:00,33.0,5.7,30.09,WNW,303,7.0,13.0,31,0.00,,,0.00,Meteo,2013-04-01 22:05:00,
2013-04-01 17:10:00,33.0,5.7,30.09,WNW,293,5.0,11.0,31,0.00,,,0.00,Meteo,2013-04-01 22:10:00,
2013-04-01 17:15:00,33.0,6.4,30.09,WNW,302,5.0,10.0,32,0.00,,,0.00,Meteo,2013-04-01 22:15:00,
2013-04-01 17:20:00,33.0,5.7,30.09,NW,318,8.0,14.0,31,0.00,,,0.00,Meteo,2013-04-01 22:20:00,
2013-04-01 17:25:00,33.0,5.7,30.09,NW,309,7.0,12.0,31,0.00,,,0.00,Meteo,2013-04-01 22:25:00,
2013-04-01 17:30:00,33.0,7.1,30.09,WNW,293,4.0,10.0,33,0.00,,,0.00,Meteo,2013-04-01 22:30:00,
2013-04-01 17:35:00,33.0,5.0,30.09,NW,306,6.0,9.0,30,0.00,,,0.00,Meteo,2013-04-01 22:35:00,
2013-04-01 17:40:00,33.0,5.7,30.09,WNW,292,4.0,10.0,31,0.00,,,0.00,Meteo,2013-04-01 22:40:00,
2013-04-01 17:45:00,33.0,5.7,30.09,West,263,4.0,8.0,31,0.00,,,0.00,Meteo,2013-04-01 22:45:00,
2013-04-01 17:50:00,33.0,5.0,30.09,WNW,297,7.0,14.0,30,0.00,,,0.00,Meteo,2013-04-01 22:50:00,
2013-04-01 17:55:00,33.0,5.7,30.09,West,276,5.0,10.0,31,0.00,,,0.00,Meteo,2013-04-01 22:55:00,
2013-04-01 18:00:00,33.0,5.0,30.09,WNW,286,8.0,15.0,30,0.00,,,0.00,Meteo,2013-04-01 23:00:00,
2013-04-01 18:05:00,33.0,5.7,30.09,WNW,300,4.0,8.0,31,0.00,,,0.00,Meteo,2013-04-01 23:05:00,
2013-04-01 18:10:00,33.0,6.4,30.09,WNW,296,5.0,10.0,32,0.00,,,0.00,Meteo,2013-04-01 23:10:00,
2013-04-01 18:15:00,33.0,7.1,30.09,WNW,303,2.0,5.0,33,0.00,,,0.00,Meteo,2013-04-01 23:15:00,
2013-04-01 18:20:00,33.0,6.4,30.09,WNW,297,3.0,5.0,32,0.00,,,0.00,Meteo,2013-04-01 23:20:00,
2013-04-01 18:25:00,33.0,7.1,30.09,WNW,297,5.0,11.0,33,0.00,,,0.00,Meteo,2013-04-01 23:25:00,
2013-04-01 18:30:00,33.0,7.1,30.09,WNW,295,5.0,8.0,33,0.00,,,0.00,Meteo,2013-04-01 23:30:00,
2013-04-01 18:35:00,33.0,7.1,30.09,WNW,292,3.0,9.0,33,0.00,,,0.00,Meteo,2013-04-01 23:35:00,
2013-04-01 18:40:00,33.0,6.4,30.09,WNW,298,3.0,6.0,32,0.00,,,0.00,Meteo,2013-04-01 23:40:00,
2013-04-01 18:45:00,32.0,6.2,30.09,WNW,291,3.0,6.0,33,0.00,,,0.00,Meteo,2013-04-01 23:45:00,
2013-04-01 18:51:00,32.0,6.2,30.09,NW,322,6.0,9.0,33,0.00,,,0.00,Meteo,2013-04-01 23:51:00,
2013-04-01 18:56:00,32.0,6.2,30.09,WNW,283,3.0,8.0,33,0.00,,,0.00,Meteo,2013-04-01 23:56:00,
2013-04-01 19:01:00,32.0,6.2,30.09,WNW,283,3.0,5.0,33,0.00,,,0.00,Meteo,2013-04-02 00:01:00,
2013-04-01 19:06:00,32.0,6.2,30.09,West,264,2.0,5.0,33,0.00,,,0.00,Meteo,2013-04-02 00:06:00,
2013-04-01 19:11:00,32.0,6.2,30.09,WNW,291,2.0,5.0,33,0.00,,,0.00,Meteo,2013-04-02 00:11:00,
2013-04-01 19:16:00,32.0,6.2,30.09,WNW,296,4.0,7.0,33,0.00,,,0.00,Meteo,2013-04-02 00:16:00,
2013-04-01 19:21:00,31.0,6.6,30.09,NW,316,1.0,3.0,35,0.00,,,0.00,Meteo,2013-04-02 00:21:00,
2013-04-01 19:26:00,31.0,6.6,30.09,West,281,1.0,3.0,35,0.00,,,0.00,Meteo,2013-04-02 00:26:00,
2013-04-01 19:31:00,31.0,7.2,30.09,West,265,1.0,3.0,36,0.00,,,0.00,Meteo,2013-04-02 00:31:00,
2013-04-01 19:36:00,31.0,7.2,30.09,WNW,301,3.0,5.0,36,0.00,,,0.00,Meteo,2013-04-02 00:36:00,
2013-04-01 19:41:00,31.0,7.2,30.09,NW,315,2.0,3.0,36,0.00,,,0.00,Meteo,2013-04-02 00:41:00,
2013-04-01 19:46:00,31.0,7.8,30.09,WNW,287,2.0,5.0,37,0.00,,,0.00,Meteo,2013-04-02 00:46:00,
2013-04-01 19:51:00,30.0,7.5,30.09,West,266,1.0,3.0,38,0.00,,,0.00,Meteo,2013-04-02 00:51:00,
2013-04-01 19:56:00,30.0,7.5,30.09,West,262,1.0,2.0,38,0.00,,,0.00,Meteo,2013-04-02 00:56:00,
2013-04-01 20:01:00,30.0,7.5,30.09,West,266,2.0,3.0,38,0.00,,,0.00,Meteo,2013-04-02 01:01:00,
2013-04-01 20:06:00,30.0,8.1,30.09,WNW,299,1.0,2.0,39,0.00,,,0.00,Meteo,2013-04-02 01:06:00,
2013-04-01 20:11:00,30.0,8.1,30.09,NW,305,1.0,2.0,39,0.00,,,0.00,Meteo,2013-04-02 01:11:00,
2013-04-01 20:16:00,29.0,7.2,30.09,WNW,290,1.0,3.0,39,0.00,,,0.00,Meteo,2013-04-02 01:16:00,
2013-04-01 20:21:00,29.0,7.2,30.09,WNW,298,2.0,5.0,39,0.00,,,0.00,Meteo,2013-04-02 01:21:00,
2013-04-01 20:26:00,30.0,7.5,30.10,NW,305,2.0,4.0,38,0.00,,,0.00,Meteo,2013-04-02 01:26:00,
2013-04-01 20:31:00,30.0,7.5,30.10,WNW,282,3.0,6.0,38,0.00,,,0.00,Meteo,2013-04-02 01:31:00,
2013-04-01 20:36:00,30.0,7.5,30.10,NW,312,4.0,6.0,38,0.00,,,0.00,Meteo,2013-04-02 01:36:00,
2013-04-01 20:41:00,30.0,7.5,30.10,NW,308,2.0,4.0,38,0.00,,,0.00,Meteo,2013-04-02 01:41:00,
2013-04-01 20:46:00,30.0,6.9,30.11,WNW,300,3.0,6.0,37,0.00,,,0.00,Meteo,2013-04-02 01:46:00,
2013-04-01 20:51:00,30.0,6.9,30.11,NW,317,3.0,5.0,37,0.00,,,0.00,Meteo,2013-04-02 01:51:00,
2013-04-01 20:56:00,29.0,6.6,30.11,NW,325,0.0,2.0,38,0.00,,,0.00,Meteo,2013-04-02 01:56:00,
2013-04-01 21:01:00,29.0,7.2,30.11,North,0,0.0,0.0,39,0.00,,,0.00,Meteo,2013-04-02 02:01:00,
2013-04-01 21:06:00,29.0,7.2,30.11,North,356,2.0,6.0,39,0.00,,,0.00,Meteo,2013-04-02 02:06:00,
2013-04-01 21:11:00,29.0,7.7,30.11,North,0,0.0,0.0,40,0.00,,,0.00,Meteo,2013-04-02 02:11:00,
2013-04-01 21:17:00,29.0,7.7,30.11,North,0,0.0,0.0,40,0.00,,,0.00,Meteo,2013-04-02 02:17:00,
2013-04-01 21:22:00,28.0,6.3,30.11,North,0,0.0,0.0,39,0.00,,,0.00,Meteo,2013-04-02 02:22:00,
2013-04-01 21:27:00,28.0,6.8,30.11,North,0,0.0,0.0,40,0.00,,,0.00,Meteo,2013-04-02 02:27:00,
2013-04-01 21:32:00,28.0,6.8,30.12,North,0,0.0,0.0,40,0.00,,,0.00,Meteo,2013-04-02 02:32:00,
2013-04-01 21:37:00,28.0,7.4,30.12,North,0,0.0,0.0,41,0.00,,,0.00,Meteo,2013-04-02 02:37:00,
2013-04-01 21:42:00,27.0,7.0,30.12,North,0,0.0,0.0,42,0.00,,,0.00,Meteo,2013-04-02 02:42:00,
2013-04-01 21:47:00,27.0,7.0,30.12,North,0,0.0,0.0,42,0.00,,,0.00,Meteo,2013-04-02 02:47:00,
2013-04-01 21:52:00,27.0,6.4,30.12,North,0,0.0,0.0,41,0.00,,,0.00,Meteo,2013-04-02 02:52:00,
2013-04-01 21:57:00,27.0,6.4,30.12,WSW,244,1.0,2.0,41,0.00,,,0.00,Meteo,2013-04-02 02:57:00,
2013-04-01 22:02:00,27.0,7.0,30.12,WSW,246,0.0,1.0,42,0.00,,,0.00,Meteo,2013-04-02 03:02:00,
2013-04-01 22:07:00,27.0,7.0,30.12,North,0,0.0,0.0,42,0.00,,,0.00,Meteo,2013-04-02 03:07:00,
2013-04-01 22:12:00,27.0,7.5,30.12,West,269,0.0,1.0,43,0.00,,,0.00,Meteo,2013-04-02 03:12:00,
2013-04-01 22:17:00,27.0,8.0,30.13,WSW,248,1.0,2.0,44,0.00,,,0.00,Meteo,2013-04-02 03:17:00,
2013-04-01 22:22:00,26.0,7.6,30.13,SSW,194,1.0,2.0,45,0.00,,,0.00,Meteo,2013-04-02 03:22:00,
2013-04-01 22:27:00,26.0,8.1,30.13,SW,224,0.0,1.0,46,0.00,,,0.00,Meteo,2013-04-02 03:27:00,
2013-04-01 22:32:00,26.0,8.1,30.13,SW,224,1.0,1.0,46,0.00,,,0.00,Meteo,2013-04-02 03:32:00,
2013-04-01 22:37:00,26.0,8.5,30.13,SW,233,1.0,2.0,47,0.00,,,0.00,Meteo,2013-04-02 03:37:00,
2013-04-01 22:42:00,26.0,9.0,30.13,SW,233,1.0,2.0,48,0.00,,,0.00,Meteo,2013-04-02 03:42:00,
2013-04-01 22:47:00,26.0,9.0,30.13,WSW,245,1.0,5.0,48,0.00,,,0.00,Meteo,2013-04-02 03:47:00,
2013-04-01 22:52:00,26.0,9.9,30.13,West,265,1.0,2.0,50,0.00,,,0.00,Meteo,2013-04-02 03:52:00,
2013-04-01 22:57:00,26.0,9.9,30.13,SW,228,0.0,1.0,50,0.00,,,0.00,Meteo,2013-04-02 03:57:00,
2013-04-01 23:00:00,26.0,9.9,30.13,SW,220,1.0,2.0,50,0.00,,,0.00,Meteo,2013-04-02 04:00:00,
2013-04-01 23:01:00,26.0,9.9,30.13,WSW,256,1.0,2.0,50,0.00,,,0.00,Meteo,2013-04-02 04:01:00,
2013-04-01 23:03:00,26.0,10.0,30.13,WSW,242,2.0,4.0,51,0.00,,,0.00,Meteo,2013-04-02 04:03:00,
2013-04-01 23:08:00,26.0,11.0,30.13,West,263,1.0,2.0,52,0.00,,,0.00,Meteo,2013-04-02 04:08:00,
2013-04-01 23:13:00,26.0,10.0,30.13,West,272,0.0,2.0,51,0.00,,,0.00,Meteo,2013-04-02 04:13:00,
2013-04-01 23:18:00,26.0,11.0,30.13,West,259,1.0,2.0,52,0.00,,,0.00,Meteo,2013-04-02 04:18:00,
2013-04-01 23:23:00,26.0,11.0,30.13,West,263,1.0,2.0,52,0.00,,,0.00,Meteo,2013-04-02 04:23:00,
2013-04-01 23:28:00,26.0,11.0,30.13,West,260,0.0,2.0,52,0.00,,,0.00,Meteo,2013-04-02 04:28:00,
2013-04-01 23:33:00,26.0,11.0,30.13,WNW,284,1.0,2.0,52,0.00,,,0.00,Meteo,2013-04-02 04:33:00,
2013-04-01 23:38:00,26.0,11.0,30.13,WSW,248,2.0,4.0,52,0.00,,,0.00,Meteo,2013-04-02 04:38:00,
2013-04-01 23:43:00,26.0,11.0,30.13,West,279,1.0,4.0,52,0.00,,,0.00,Meteo,2013-04-02 04:43:00,
2013-04-01 23:48:00,26.0,11.0,30.13,West,281,2.0,5.0,52,0.00,,,0.00,Meteo,2013-04-02 04:48:00,
2013-04-01 23:53:00,26.0,11.0,30.13,WNW,291,1.0,2.0,52,0.00,,,0.00,Meteo,2013-04-02 04:53:00,
2013-04-01 23:58:00,26.0,11.0,30.13,WSW,246,0.0,2.0,52,0.00,,,0.00,Meteo,2013-04-02 04:58:00,